| time (UTC) | temp F | wind direction | speed MPH | gust MPH | rain 1hr in | rain 24hr in | rain mn in | humidity % | barometer mb |
| 20260510091046 | 67 | 61 | 0.0 | 1.0 | 0.00 | 0.00 | 0.00 | 92 | 1005.6 |
| 20260510090545 | 67 | 61 | 0.0 | 0.0 | 0.00 | 0.00 | 0.00 | 92 | 1005.5 |
| 20260510090050 | 67 | 61 | 0.0 | 0.0 | 0.00 | 0.00 | 0.00 | 92 | 1005.4 |
| 20260510085546 | 67 | 61 | 0.0 | 0.0 | 0.00 | 0.00 | 0.00 | 92 | 1005.3 |
| 20260510085043 | 67 | 61 | 0.0 | 1.0 | 0.00 | 0.00 | 0.00 | 92 | 1005.2 |
| 20260510084605 | 67 | 61 | 0.0 | 1.0 | 0.00 | 0.00 | 0.00 | 92 | 1005.1 |
| 20260510084046 | 67 | 61 | 0.0 | 0.0 | 0.00 | 0.00 | 0.00 | 92 | 1004.9 |
| 20260510083543 | 67 | 61 | 0.0 | 1.0 | 0.00 | 0.00 | 0.00 | 92 | 1004.8 |
| 20260510083045 | 67 | 61 | 0.0 | 0.0 | 0.00 | 0.00 | 0.00 | 92 | 1004.6 |
| 20260510082542 | 67 | 61 | 0.0 | 0.0 | 0.00 | 0.00 | 0.00 | 92 | 1004.5 |
| 20260510082042 | 67 | 61 | 0.0 | 0.0 | 0.00 | 0.00 | 0.00 | 91 | 1004.4 |
| 20260510081551 | 67 | 61 | 0.0 | 0.0 | 0.00 | 0.00 | 0.00 | 91 | 1004.4 |
| 20260510081040 | 67 | 61 | 0.0 | 0.0 | 0.00 | 0.00 | 0.00 | 91 | 1004.3 |
| 20260510080542 | 67 | 61 | 0.0 | 0.0 | 0.00 | 0.00 | 0.00 | 91 | 1004.2 |
| 20260510080044 | 67 | 61 | 0.0 | 0.0 | 0.00 | 0.00 | 0.00 | 90 | 1004.0 |
| 20260510075541 | 67 | 61 | 0.0 | 0.0 | 0.00 | 0.00 | 0.00 | 90 | 1004.0 |
| 20260510075039 | 67 | 61 | 0.0 | 0.0 | 0.00 | 0.00 | 0.00 | 90 | 1004.0 |
| 20260510074537 | 68 | 61 | 0.0 | 0.0 | 0.00 | 0.00 | 0.00 | 90 | 1004.0 |
| 20260510074039 | 68 | 61 | 0.0 | 0.0 | 0.00 | 0.00 | 0.00 | 89 | 1004.3 |
| 20260510073537 | 68 | 61 | 0.0 | 0.0 | 0.00 | 0.00 | 0.00 | 89 | 1004.4 |
| 20260510073037 | 68 | 61 | 0.0 | 1.0 | 0.00 | 0.00 | 0.00 | 89 | 1004.5 |
| 20260510072538 | 69 | 61 | 0.0 | 1.0 | 0.00 | 0.00 | 0.00 | 89 | 1004.6 |
| 20260510072041 | 69 | 61 | 0.0 | 1.0 | 0.00 | 0.00 | 0.00 | 89 | 1004.5 |
| 20260510071543 | 69 | 61 | 0.0 | 0.0 | 0.00 | 0.00 | 0.00 | 88 | 1004.5 |
| 20260510071035 | 69 | 61 | 0.0 | 0.0 | 0.00 | 0.00 | 0.00 | 88 | 1004.6 |
| 20260510070535 | 69 | 61 | 0.0 | 1.0 | 0.00 | 0.00 | 0.00 | 88 | 1004.8 |
| 20260510070040 | 70 | 61 | 0.0 | 2.0 | 0.00 | 0.00 | 0.00 | 88 | 1005.1 |
| 20260510065534 | 70 | 72 | 0.0 | 2.0 | 0.00 | 0.00 | 0.00 | 88 | 1005.1 |
| 20260510065032 | 70 | 75 | 1.0 | 2.0 | 0.00 | 0.00 | 0.00 | 88 | 1004.7 |
| 20260510064531 | 69 | 68 | 0.0 | 1.0 | 0.00 | 0.00 | 0.00 | 88 | 1004.2 |
| 20260510064030 | 69 | 243 | 0.0 | 2.0 | 0.00 | 0.00 | 0.00 | 87 | 1003.6 |
| 20260510063529 | 69 | 217 | 0.0 | 2.0 | 0.00 | 0.00 | 0.00 | 87 | 1003.4 |
| 20260510063029 | 69 | 217 | 0.0 | 1.0 | 0.00 | 0.00 | 0.00 | 87 | 1003.5 |
| 20260510062529 | 69 | 217 | 0.0 | 1.0 | 0.00 | 0.00 | 0.00 | 87 | 1003.5 |
| 20260510062032 | 69 | 217 | 0.0 | 2.0 | 0.00 | 0.00 | 0.00 | 87 | 1003.5 |
| 20260510061528 | 69 | 217 | 0.0 | 2.0 | 0.00 | 0.00 | 0.00 | 87 | 1003.4 |
| 20260510061031 | 69 | 250 | 0.0 | 2.0 | 0.00 | 0.00 | 0.00 | 87 | 1003.4 |
| 20260510060528 | 69 | 18 | 0.0 | 1.0 | 0.00 | 0.00 | 0.00 | 86 | 1003.5 |
| 20260510060026 | 69 | 18 | 0.0 | 1.0 | 0.00 | 0.00 | 0.00 | 85 | 1003.6 |
| 20260510055525 | 69 | 18 | 0.0 | 1.0 | 0.00 | 0.00 | 0.00 | 84 | 1003.5 |
| 20260510055025 | 69 | 18 | 0.0 | 1.0 | 0.00 | 0.00 | 0.00 | 84 | 1003.5 |
| 20260510054524 | 69 | 18 | 0.0 | 1.0 | 0.00 | 0.00 | 0.00 | 83 | 1003.3 |
| 20260510054025 | 69 | 18 | 0.0 | 0.0 | 0.00 | 0.00 | 0.00 | 83 | 1003.4 |
| 20260510053523 | 69 | 18 | 0.0 | 0.0 | 0.00 | 0.00 | 0.00 | 83 | 1003.3 |
| 20260510053026 | 69 | 18 | 0.0 | 1.0 | 0.00 | 0.00 | 0.00 | 83 | 1003.3 |
| 20260510052523 | 69 | 289 | 0.0 | 1.0 | 0.00 | 0.00 | 0.00 | 83 | 1003.2 |
| 20260510052023 | 69 | 48 | 0.0 | 1.0 | 0.00 | 0.00 | 0.00 | 83 | 1003.3 |
| 20260510051522 | 69 | 48 | 0.0 | 1.0 | 0.00 | 0.00 | 0.00 | 82 | 1003.2 |
| 20260510051022 | 68 | 48 | 0.0 | 1.0 | 0.00 | 0.00 | 0.00 | 82 | 1003.2 |
| 20260510050519 | 68 | 48 | 0.0 | 1.0 | 0.00 | 0.00 | 0.00 | 82 | 1003.0 |
| 20260510050023 | 68 | 48 | 0.0 | 1.0 | 0.00 | 0.00 | 0.00 | 83 | 1003.1 |
| 20260510045519 | 68 | 48 | 0.0 | 0.0 | 0.00 | 0.00 | 0.00 | 83 | 1003.1 |
| 20260510045018 | 68 | 48 | 0.0 | 1.0 | 0.00 | 0.00 | 0.00 | 82 | 1002.9 |
| 20260510044528 | 68 | 48 | 0.0 | 1.0 | 0.00 | 0.00 | 0.00 | 82 | 1003.0 |
| 20260510044017 | 68 | 48 | 0.0 | 1.0 | 0.00 | 0.00 | 0.00 | 82 | 1003.1 |
| 20260510043517 | 68 | 48 | 0.0 | 0.0 | 0.00 | 0.00 | 0.00 | 81 | 1003.2 |
| 20260510043017 | 68 | 48 | 0.0 | 0.0 | 0.00 | 0.00 | 0.00 | 81 | 1003.2 |
| 20260510042517 | 68 | 48 | 0.0 | 0.0 | 0.00 | 0.00 | 0.00 | 80 | 1003.2 |
| 20260510042016 | 68 | 48 | 0.0 | 0.0 | 0.00 | 0.00 | 0.00 | 80 | 1003.2 |
| 20260510041518 | 68 | 48 | 0.0 | 0.0 | 0.00 | 0.00 | 0.00 | 79 | 1003.3 |
| 20260510041017 | 68 | 48 | 0.0 | 0.0 | 0.00 | 0.00 | 0.00 | 79 | 1003.3 |
| 20260510040518 | 68 | 48 | 0.0 | 0.0 | 0.00 | 0.00 | 0.00 | 78 | 1003.3 |
| 20260510040016 | 69 | 48 | 0.0 | 0.0 | 0.00 | 0.00 | 0.00 | 78 | 1003.3 |
| 20260510035516 | 69 | 48 | 0.0 | 0.0 | 0.00 | 0.00 | 0.00 | 77 | 1003.3 |
| 20260510035017 | 69 | 48 | 0.0 | 0.0 | 0.00 | 0.00 | 0.00 | 76 | 1003.3 |
| 20260510034516 | 69 | 48 | 0.0 | 0.0 | 0.00 | 0.00 | 0.00 | 76 | 1003.3 |
| 20260510034016 | 69 | 48 | 0.0 | 0.0 | 0.00 | 0.00 | 0.00 | 75 | 1003.4 |
| 20260510033515 | 70 | 48 | 0.0 | 0.0 | 0.00 | 0.00 | 0.00 | 74 | 1003.3 |
| 20260510033015 | 70 | 48 | 0.0 | 1.0 | 0.00 | 0.00 | 0.00 | 74 | 1003.5 |
| 20260510032515 | 70 | 48 | 0.0 | 1.0 | 0.00 | 0.00 | 0.00 | 74 | 1003.6 |
| 20260510032017 | 70 | 48 | 0.0 | 0.0 | 0.00 | 0.00 | 0.00 | 74 | 1003.6 |
| 20260510031515 | 70 | 48 | 0.0 | 0.0 | 0.00 | 0.00 | 0.00 | 74 | 1003.6 |
| 20260510031015 | 70 | 48 | 0.0 | 0.0 | 0.00 | 0.00 | 0.00 | 73 | 1003.4 |
| 20260510030514 | 70 | 48 | 0.0 | 0.0 | 0.00 | 0.00 | 0.00 | 73 | 1003.4 |
| 20260510030014 | 71 | 48 | 0.0 | 0.0 | 0.00 | 0.00 | 0.00 | 73 | 1003.3 |
| 20260510025514 | 71 | 48 | 0.0 | 0.0 | 0.00 | 0.00 | 0.00 | 73 | 1003.3 |
| 20260510025014 | 71 | 48 | 0.0 | 0.0 | 0.00 | 0.00 | 0.00 | 72 | 1003.2 |
| 20260510024516 | 71 | 48 | 0.0 | 0.0 | 0.00 | 0.00 | 0.00 | 72 | 1003.1 |
| 20260510024013 | 72 | 48 | 0.0 | 0.0 | 0.00 | 0.00 | 0.00 | 71 | 1003.0 |
| 20260510023513 | 72 | 48 | 0.0 | 0.0 | 0.00 | 0.00 | 0.00 | 71 | 1002.9 |
| 20260510023014 | 72 | 48 | 0.0 | 0.0 | 0.00 | 0.00 | 0.00 | 71 | 1002.9 |
| 20260510022514 | 72 | 48 | 0.0 | 0.0 | 0.00 | 0.00 | 0.00 | 71 | 1002.8 |
| 20260510022014 | 73 | 48 | 0.0 | 0.0 | 0.00 | 0.00 | 0.00 | 70 | 1002.8 |
| 20260510021517 | 73 | 48 | 0.0 | 0.0 | 0.00 | 0.00 | 0.00 | 70 | 1002.7 |
| 20260510021013 | 73 | 48 | 0.0 | 0.0 | 0.00 | 0.00 | 0.00 | 70 | 1002.7 |
| 20260510020518 | 74 | 48 | 0.0 | 0.0 | 0.00 | 0.00 | 0.00 | 69 | 1002.6 |
| 20260510020013 | 74 | 48 | 0.0 | 0.0 | 0.00 | 0.00 | 0.00 | 69 | 1002.6 |
| 20260510015512 | 75 | 48 | 0.0 | 0.0 | 0.00 | 0.00 | 0.00 | 68 | 1002.5 |
| 20260510015018 | 75 | 48 | 0.0 | 0.0 | 0.00 | 0.00 | 0.00 | 67 | 1002.5 |
| 20260510014512 | 76 | 48 | 0.0 | 0.0 | 0.00 | 0.00 | 0.00 | 66 | 1002.4 |
| 20260510014012 | 76 | 48 | 0.0 | 0.0 | 0.00 | 0.00 | 0.00 | 66 | 1002.5 |
| 20260510013513 | 77 | 48 | 0.0 | 1.0 | 0.00 | 0.00 | 0.00 | 66 | 1002.4 |
| 20260510013012 | 78 | 48 | 0.0 | 0.0 | 0.00 | 0.00 | 0.00 | 65 | 1002.3 |
| 20260510012511 | 79 | 48 | 0.0 | 0.0 | 0.00 | 0.00 | 0.00 | 64 | 1002.2 |
| 20260510012014 | 80 | 48 | 0.0 | 1.0 | 0.00 | 0.00 | 0.00 | 63 | 1002.3 |
| 20260510011523 | 82 | 48 | 0.0 | 0.0 | 0.00 | 0.00 | 0.00 | 61 | 1002.3 |
| 20260510011010 | 83 | 48 | 0.0 | 0.0 | 0.00 | 0.00 | 0.00 | 59 | 1002.1 |
| 20260510010509 | 85 | 48 | 0.0 | 0.0 | 0.00 | 0.00 | 0.00 | 57 | 1002.2 |
| 20260510010009 | 86 | 48 | 0.0 | 0.0 | 0.00 | 0.00 | 0.00 | 55 | 1002.2 |
| 20260510005509 | 88 | 48 | 0.0 | 0.0 | 0.00 | 0.00 | 0.00 | 53 | 1002.1 |
| 20260510005009 | 89 | 48 | 0.0 | 0.0 | 0.00 | 0.00 | 0.00 | 52 | 1002.0 |
| 20260510004512 | 90 | 48 | 0.0 | 0.0 | 0.00 | 0.00 | 0.00 | 51 | 1001.9 |
| 20260510004008 | 90 | 48 | 0.0 | 1.0 | 0.00 | 0.00 | 0.00 | 49 | 1002.0 |
| 20260510003508 | 91 | 48 | 0.0 | 1.0 | 0.00 | 0.00 | 0.00 | 48 | 1001.9 |
| 20260510003011 | 92 | 333 | 0.0 | 1.0 | 0.00 | 0.00 | 0.00 | 48 | 1001.9 |
| 20260510002510 | 93 | 15 | 0.0 | 1.0 | 0.00 | 0.00 | 0.00 | 46 | 1001.9 |
| 20260510002008 | 95 | 224 | 0.0 | 1.0 | 0.00 | 0.00 | 0.00 | 43 | 1001.9 |
| 20260510001508 | 96 | 352 | 0.0 | 1.0 | 0.00 | 0.00 | 0.00 | 43 | 1001.8 |
| 20260510001008 | 96 | 352 | 0.0 | 1.0 | 0.00 | 0.00 | 0.00 | 43 | 1001.8 |
| 20260510000508 | 96 | 350 | 0.0 | 1.0 | 0.00 | 0.00 | 0.00 | 42 | 1001.8 |
| 20260510000014 | 96 | 46 | 0.0 | 0.0 | 0.00 | 0.00 | 0.00 | 43 | 1001.8 |
| 20260509235510 | 95 | 46 | 0.0 | 1.0 | 0.00 | 0.00 | 0.00 | 42 | 1001.7 |
| 20260509235010 | 96 | 46 | 0.0 | 1.0 | 0.00 | 0.00 | 0.00 | 42 | 1001.7 |
| 20260509234507 | 96 | 63 | 0.0 | 2.0 | 0.00 | 0.00 | 0.00 | 41 | 1001.7 |
| 20260509234008 | 97 | 27 | 0.0 | 2.0 | 0.00 | 0.00 | 0.00 | 40 | 1001.6 |
| 20260509233509 | 97 | 320 | 0.0 | 3.0 | 0.00 | 0.00 | 0.00 | 40 | 1001.6 |
| 20260509233005 | 98 | 58 | 0.0 | 3.0 | 0.00 | 0.00 | 0.00 | 39 | 1001.6 |
| 20260509232504 | 97 | 58 | 0.0 | 1.0 | 0.00 | 0.00 | 0.00 | 38 | 1001.7 |
| 20260509232004 | 96 | 66 | 0.0 | 1.0 | 0.00 | 0.00 | 0.00 | 39 | 1001.6 |
| 20260509231504 | 96 | 66 | 0.0 | 2.0 | 0.00 | 0.00 | 0.00 | 39 | 1001.6 |
| 20260509231003 | 96 | 65 | 0.0 | 3.0 | 0.00 | 0.00 | 0.00 | 37 | 1001.7 |
| 20260509230503 | 97 | 63 | 0.0 | 3.0 | 0.00 | 0.00 | 0.00 | 37 | 1001.7 |
| 20260509230003 | 96 | 44 | 0.0 | 1.0 | 0.00 | 0.00 | 0.00 | 38 | 1001.8 |
| 20260509225503 | 95 | 42 | 0.0 | 1.0 | 0.00 | 0.00 | 0.00 | 39 | 1001.8 |
| 20260509225002 | 95 | 31 | 0.0 | 3.0 | 0.00 | 0.00 | 0.00 | 40 | 1001.8 |
| 20260509224502 | 96 | 61 | 1.0 | 3.0 | 0.00 | 0.00 | 0.00 | 39 | 1001.7 |
| 20260509224002 | 97 | 19 | 1.0 | 2.0 | 0.00 | 0.00 | 0.00 | 38 | 1001.7 |
| 20260509223602 | 96 | 75 | 0.0 | 1.0 | 0.00 | 0.00 | 0.00 | 38 | 1001.7 |
| 20260509223106 | 95 | 161 | 0.0 | 2.0 | 0.00 | 0.00 | 0.00 | 36 | 1001.7 |
| 20260509222600 | 95 | 117 | 0.0 | 3.0 | 0.00 | 0.00 | 0.00 | 37 | 1001.7 |
| 20260509222058 | 95 | 61 | 0.0 | 3.0 | 0.00 | 0.00 | 0.00 | 39 | 1001.7 |
| 20260509221558 | 94 | 57 | 0.0 | 4.0 | 0.00 | 0.00 | 0.00 | 38 | 1001.7 |
| 20260509221057 | 94 | 65 | 0.0 | 4.0 | 0.00 | 0.00 | 0.00 | 38 | 1001.7 |
| 20260509220558 | 93 | 46 | 0.0 | 3.0 | 0.00 | 0.00 | 0.00 | 39 | 1001.8 |
| 20260509220157 | 94 | 317 | 0.0 | 4.0 | 0.00 | 0.00 | 0.00 | 37 | 1001.7 |
| 20260509215557 | 95 | 49 | 0.0 | 4.0 | 0.00 | 0.00 | 0.00 | 37 | 1001.9 |
| 20260509215057 | 95 | 16 | 0.0 | 3.0 | 0.00 | 0.00 | 0.00 | 39 | 1001.8 |
| 20260509214557 | 94 | 87 | 0.0 | 5.0 | 0.00 | 0.00 | 0.00 | 38 | 1001.9 |
| 20260509214056 | 95 | 59 | 2.0 | 5.0 | 0.00 | 0.00 | 0.00 | 37 | 1001.9 |
| 20260509213556 | 95 | 8 | 0.0 | 1.0 | 0.00 | 0.00 | 0.00 | 39 | 1001.9 |
| 20260509213055 | 94 | 203 | 0.0 | 2.0 | 0.00 | 0.00 | 0.00 | 41 | 1002.0 |
| 20260509212553 | 93 | 203 | 0.0 | 2.0 | 0.00 | 0.00 | 0.00 | 39 | 1002.1 |
| 20260509212053 | 93 | 281 | 0.0 | 3.0 | 0.00 | 0.00 | 0.00 | 39 | 1002.2 |
| 20260509211552 | 92 | 36 | 0.0 | 4.0 | 0.00 | 0.00 | 0.00 | 38 | 1002.3 |
| 20260509211052 | 92 | 166 | 1.0 | 4.0 | 0.00 | 0.00 | 0.00 | 41 | 1002.3 |
| 20260509210552 | 92 | 339 | 0.0 | 3.0 | 0.00 | 0.00 | 0.00 | 41 | 1002.4 |
| 20260509210057 | 92 | 311 | 1.0 | 4.0 | 0.00 | 0.00 | 0.00 | 38 | 1002.5 |
| 20260509205549 | 92 | 66 | 1.0 | 5.0 | 0.00 | 0.06 | 0.00 | 40 | 1002.6 |
| 20260509205054 | 91 | 149 | 1.0 | 5.0 | 0.00 | 0.06 | 0.00 | 41 | 1002.6 |
| 20260509204554 | 91 | 302 | 1.0 | 3.0 | 0.00 | 0.06 | 0.00 | 40 | 1002.6 |
| 20260509204050 | 90 | 216 | 1.0 | 3.0 | 0.00 | 0.06 | 0.00 | 39 | 1002.8 |
| 20260509203549 | 91 | 320 | 1.0 | 4.0 | 0.00 | 0.06 | 0.00 | 38 | 1002.7 |
| 20260509203049 | 91 | 335 | 0.0 | 3.0 | 0.00 | 0.06 | 0.00 | 40 | 1002.8 |
| 20260509202549 | 92 | 344 | 0.0 | 2.0 | 0.00 | 0.06 | 0.00 | 40 | 1002.9 |
| 20260509202048 | 91 | 207 | 0.0 | 4.0 | 0.00 | 0.06 | 0.00 | 39 | 1003.0 |
| 20260509201549 | 90 | 44 | 0.0 | 5.0 | 0.00 | 0.06 | 0.00 | 38 | 1003.0 |
| 20260509201047 | 90 | 70 | 0.0 | 6.0 | 0.00 | 0.06 | 0.00 | 41 | 1003.0 |
| 20260509200547 | 90 | 330 | 1.0 | 6.0 | 0.00 | 0.06 | 0.00 | 41 | 1003.2 |
| 20260509195545 | 90 | 318 | 0.0 | 4.0 | 0.00 | 0.06 | 0.00 | 42 | 1003.2 |
| 20260509195044 | 90 | 305 | 0.0 | 4.0 | 0.00 | 0.06 | 0.00 | 42 | 1003.3 |
| 20260509194545 | 90 | 278 | 0.0 | 4.0 | 0.00 | 0.06 | 0.00 | 43 | 1003.3 |
| 20260509194044 | 90 | 95 | 1.0 | 3.0 | 0.00 | 0.06 | 0.00 | 42 | 1003.3 |
| 20260509193543 | 89 | 10 | 0.0 | 5.0 | 0.00 | 0.06 | 0.00 | 45 | 1003.3 |
| 20260509193043 | 89 | 326 | 1.0 | 5.0 | 0.00 | 0.06 | 0.00 | 43 | 1003.4 |
| 20260509192541 | 89 | 129 | 0.0 | 3.0 | 0.00 | 0.06 | 0.00 | 48 | 1003.5 |
| 20260509192040 | 88 | 329 | 1.0 | 4.0 | 0.00 | 0.06 | 0.00 | 45 | 1003.6 |
| 20260509191540 | 88 | 320 | 1.0 | 5.0 | 0.00 | 0.06 | 0.00 | 45 | 1003.5 |
| 20260509191039 | 88 | 340 | 2.0 | 5.0 | 0.00 | 0.06 | 0.00 | 46 | 1003.5 |
| 20260509190538 | 88 | 2 | 1.0 | 4.0 | 0.00 | 0.06 | 0.00 | 47 | 1003.6 |
| 20260509190038 | 87 | 272 | 1.0 | 7.0 | 0.00 | 0.06 | 0.00 | 47 | 1003.7 |
| 20260509185538 | 87 | 311 | 2.0 | 7.0 | 0.00 | 0.06 | 0.00 | 46 | 1003.8 |
| 20260509185037 | 87 | 319 | 1.0 | 6.0 | 0.00 | 0.06 | 0.00 | 48 | 1003.9 |
| 20260509184553 | 87 | 259 | 1.0 | 5.0 | 0.00 | 0.06 | 0.00 | 49 | 1003.8 |
| 20260509184036 | 87 | 70 | 2.0 | 5.0 | 0.00 | 0.06 | 0.00 | 51 | 1003.9 |
| 20260509183536 | 87 | 336 | 1.0 | 6.0 | 0.00 | 0.06 | 0.00 | 49 | 1004.0 |
| 20260509183036 | 87 | 300 | 2.0 | 6.0 | 0.00 | 0.06 | 0.00 | 49 | 1004.0 |
| 20260509182534 | 87 | 56 | 1.0 | 7.0 | 0.00 | 0.06 | 0.00 | 51 | 1004.0 |
| 20260509182033 | 86 | 58 | 1.0 | 7.0 | 0.00 | 0.06 | 0.00 | 51 | 1004.0 |
| 20260509181532 | 86 | 80 | 2.0 | 7.0 | 0.00 | 0.06 | 0.00 | 50 | 1004.0 |
| 20260509181033 | 86 | 43 | 1.0 | 9.0 | 0.00 | 0.06 | 0.00 | 51 | 1004.1 |
| 20260509180533 | 85 | 310 | 2.0 | 9.0 | 0.00 | 0.06 | 0.00 | 55 | 1004.1 |
| 20260509180030 | 85 | 319 | 1.0 | 7.0 | 0.00 | 0.06 | 0.00 | 52 | 1004.2 |
| 20260509175531 | 85 | 347 | 2.0 | 7.0 | 0.00 | 0.06 | 0.00 | 52 | 1004.1 |
| 20260509175030 | 85 | 9 | 2.0 | 6.0 | 0.00 | 0.06 | 0.00 | 54 | 1004.1 |
| 20260509174535 | 85 | 340 | 1.0 | 7.0 | 0.00 | 0.06 | 0.00 | 52 | 1004.2 |
| 20260509174030 | 86 | 315 | 3.0 | 6.0 | 0.00 | 0.06 | 0.00 | 51 | 1004.3 |
| 20260509173529 | 86 | 26 | 1.0 | 8.0 | 0.00 | 0.06 | 0.00 | 53 | 1004.4 |
| 20260509173028 | 85 | 17 | 1.0 | 6.0 | 0.00 | 0.06 | 0.00 | 53 | 1004.4 |
| 20260509172526 | 84 | 57 | 2.0 | 7.0 | 0.00 | 0.06 | 0.00 | 53 | 1004.4 |
| 20260509172027 | 84 | 307 | 2.0 | 9.0 | 0.00 | 0.06 | 0.00 | 51 | 1004.4 |
| 20260509171532 | 84 | 302 | 3.0 | 9.0 | 0.00 | 0.06 | 0.00 | 52 | 1004.5 |
| 20260509171025 | 84 | 327 | 2.0 | 6.0 | 0.00 | 0.06 | 0.00 | 53 | 1004.6 |
| 20260509170525 | 84 | 316 | 2.0 | 6.0 | 0.00 | 0.06 | 0.00 | 51 | 1004.7 |
| 20260509170024 | 84 | 286 | 3.0 | 8.0 | 0.00 | 0.06 | 0.00 | 51 | 1004.6 |
| 20260509165527 | 84 | 320 | 3.0 | 8.0 | 0.00 | 0.06 | 0.00 | 51 | 1004.7 |
| 20260509165022 | 83 | 332 | 2.0 | 7.0 | 0.00 | 0.06 | 0.00 | 52 | 1004.6 |
| 20260509164522 | 83 | 317 | 2.0 | 7.0 | 0.00 | 0.06 | 0.00 | 54 | 1004.7 |
| 20260509164021 | 83 | 304 | 2.0 | 6.0 | 0.00 | 0.06 | 0.00 | 53 | 1004.7 |
| 20260509163524 | 82 | 342 | 2.0 | 9.0 | 0.00 | 0.06 | 0.00 | 55 | 1004.6 |
| 20260509163023 | 82 | 312 | 3.0 | 9.0 | 0.00 | 0.06 | 0.00 | 52 | 1004.7 |
| 20260509162519 | 82 | 20 | 4.0 | 8.0 | 0.00 | 0.06 | 0.00 | 52 | 1004.7 |
| 20260509162019 | 82 | 10 | 1.0 | 8.0 | 0.00 | 0.06 | 0.00 | 55 | 1004.6 |
| 20260509161517 | 81 | 27 | 2.0 | 9.0 | 0.00 | 0.06 | 0.00 | 55 | 1004.6 |
| 20260509161016 | 81 | 5 | 4.0 | 9.0 | 0.00 | 0.06 | 0.00 | 57 | 1004.6 |
| 20260509160516 | 81 | 190 | 2.0 | 7.0 | 0.00 | 0.06 | 0.00 | 56 | 1004.6 |
| 20260509160019 | 81 | 8 | 2.0 | 8.0 | 0.00 | 0.06 | 0.00 | 59 | 1004.6 |
| 20260509155513 | 81 | 170 | 2.0 | 8.0 | 0.00 | 0.06 | 0.00 | 60 | 1004.7 |
| 20260509155012 | 80 | 295 | 1.0 | 5.0 | 0.00 | 0.06 | 0.00 | 62 | 1004.7 |
| 20260509154515 | 80 | 288 | 2.0 | 5.0 | 0.00 | 0.06 | 0.00 | 63 | 1004.8 |
| 20260509154011 | 80 | 58 | 2.0 | 9.0 | 0.00 | 0.06 | 0.00 | 63 | 1004.7 |
| 20260509153509 | 79 | 49 | 3.0 | 9.0 | 0.00 | 0.06 | 0.00 | 61 | 1004.8 |
| 20260509153022 | 79 | 335 | 2.0 | 8.0 | 0.00 | 0.06 | 0.00 | 63 | 1004.7 |
| 20260509152508 | 79 | 72 | 3.0 | 8.0 | 0.00 | 0.06 | 0.00 | 63 | 1004.7 |
| 20260509152012 | 79 | 323 | 1.0 | 5.0 | 0.00 | 0.06 | 0.00 | 67 | 1004.6 |
| 20260509151505 | 78 | 335 | 1.0 | 7.0 | 0.00 | 0.06 | 0.00 | 68 | 1004.5 |
| 20260509151004 | 77 | 96 | 2.0 | 7.0 | 0.00 | 0.06 | 0.00 | 70 | 1004.4 |
| 20260509150503 | 77 | 41 | 1.0 | 5.0 | 0.00 | 0.06 | 0.00 | 72 | 1004.5 |
| 20260509150001 | 76 | 339 | 1.0 | 4.0 | 0.00 | 0.06 | 0.00 | 74 | 1004.5 |
| 20260509145600 | 76 | 307 | 1.0 | 6.0 | 0.00 | 0.06 | 0.00 | 76 | 1004.6 |
| 20260509145058 | 75 | 316 | 1.0 | 6.0 | 0.00 | 0.06 | 0.00 | 77 | 1004.6 |
| 20260509144608 | 74 | 323 | 2.0 | 5.0 | 0.00 | 0.06 | 0.00 | 78 | 1004.6 |
| 20260509144058 | 74 | 30 | 1.0 | 5.0 | 0.00 | 0.06 | 0.00 | 79 | 1004.7 |
| 20260509143554 | 73 | 328 | 1.0 | 5.0 | 0.00 | 0.06 | 0.00 | 79 | 1004.6 |
| 20260509143116 | 73 | 316 | 2.0 | 5.0 | 0.00 | 0.06 | 0.00 | 79 | 1004.7 |
| 20260509142553 | 73 | 23 | 3.0 | 6.0 | 0.00 | 0.06 | 0.00 | 80 | 1004.7 |
| 20260509142053 | 73 | 255 | 1.0 | 6.0 | 0.00 | 0.06 | 0.00 | 81 | 1004.6 |
| 20260509141551 | 73 | 123 | 1.0 | 5.0 | 0.00 | 0.06 | 0.00 | 81 | 1004.7 |
| 20260509141051 | 72 | 332 | 2.0 | 5.0 | 0.00 | 0.06 | 0.00 | 81 | 1004.8 |
| 20260509140549 | 72 | 326 | 1.0 | 6.0 | 0.00 | 0.06 | 0.00 | 82 | 1004.8 |
| 20260509140059 | 72 | 89 | 2.0 | 7.0 | 0.00 | 0.06 | 0.00 | 82 | 1004.7 |
| 20260509135548 | 72 | 63 | 0.0 | 7.0 | 0.00 | 0.06 | 0.00 | 83 | 1004.6 |
| 20260509135050 | 72 | 11 | 0.0 | 3.0 | 0.00 | 0.06 | 0.00 | 83 | 1004.7 |
| 20260509134605 | 71 | 350 | 0.0 | 4.0 | 0.00 | 0.06 | 0.00 | 84 | 1004.5 |
| 20260509134044 | 71 | 77 | 1.0 | 6.0 | 0.00 | 0.06 | 0.00 | 85 | 1004.5 |
| 20260509133546 | 71 | 290 | 2.0 | 6.0 | 0.00 | 0.06 | 0.00 | 85 | 1004.5 |
| 20260509133048 | 71 | 317 | 1.0 | 5.0 | 0.00 | 0.06 | 0.00 | 86 | 1004.4 |
| 20260509132543 | 71 | 266 | 0.0 | 6.0 | 0.00 | 0.06 | 0.00 | 87 | 1004.4 |
| 20260509132046 | 70 | 304 | 1.0 | 6.0 | 0.00 | 0.06 | 0.00 | 88 | 1004.4 |
| 20260509131540 | 70 | 281 | 2.0 | 6.0 | 0.00 | 0.06 | 0.00 | 90 | 1004.3 |
| 20260509131039 | 69 | 352 | 1.0 | 3.0 | 0.00 | 0.06 | 0.00 | 92 | 1004.1 |
| 20260509130539 | 69 | 340 | 0.0 | 2.0 | 0.00 | 0.06 | 0.00 | 93 | 1004.1 |
| 20260509130052 | 68 | 312 | 0.0 | 0.0 | 0.00 | 0.06 | 0.00 | 93 | 1003.9 |
| 20260509125537 | 68 | 312 | 0.0 | 0.0 | 0.00 | 0.06 | 0.00 | 93 | 1004.0 |
| 20260509125037 | 67 | 312 | 0.0 | 0.0 | 0.00 | 0.06 | 0.00 | 93 | 1004.0 |
| 20260509124538 | 67 | 312 | 0.0 | 0.0 | 0.00 | 0.06 | 0.00 | 93 | 1004.0 |
| 20260509124037 | 67 | 312 | 0.0 | 0.0 | 0.00 | 0.06 | 0.00 | 93 | 1003.9 |
| 20260509123538 | 67 | 312 | 0.0 | 0.0 | 0.00 | 0.06 | 0.00 | 93 | 1004.0 |
| 20260509123045 | 66 | 312 | 0.0 | 0.0 | 0.00 | 0.06 | 0.00 | 92 | 1004.0 |
| 20260509122537 | 66 | 312 | 0.0 | 0.0 | 0.00 | 0.06 | 0.00 | 92 | 1004.0 |
| 20260509122037 | 66 | 312 | 0.0 | 0.0 | 0.00 | 0.06 | 0.00 | 92 | 1004.0 |
| 20260509121544 | 66 | 312 | 0.0 | 0.0 | 0.00 | 0.06 | 0.00 | 91 | 1003.9 |
| 20260509121037 | 67 | 312 | 0.0 | 0.0 | 0.00 | 0.06 | 0.00 | 91 | 1004.1 |
| 20260509120537 | 67 | 312 | 0.0 | 0.0 | 0.00 | 0.06 | 0.00 | 91 | 1004.1 |
| 20260509120035 | 67 | 312 | 0.0 | 0.0 | 0.00 | 0.06 | 0.00 | 91 | 1004.1 |
| 20260509115535 | 68 | 312 | 0.0 | 0.0 | 0.00 | 0.06 | 0.00 | 91 | 1004.1 |
| 20260509115036 | 68 | 312 | 0.0 | 0.0 | 0.00 | 0.06 | 0.00 | 91 | 1004.2 |
| 20260509114538 | 68 | 312 | 0.0 | 1.0 | 0.00 | 0.06 | 0.00 | 91 | 1004.2 |
| 20260509114034 | 68 | 312 | 0.0 | 2.0 | 0.00 | 0.06 | 0.00 | 91 | 1004.2 |
| 20260509113537 | 69 | 312 | 0.0 | 2.0 | 0.00 | 0.06 | 0.00 | 91 | 1004.1 |
| 20260509113038 | 69 | 309 | 0.0 | 2.0 | 0.00 | 0.06 | 0.00 | 91 | 1004.1 |
| 20260509112536 | 69 | 309 | 0.0 | 2.0 | 0.00 | 0.06 | 0.00 | 91 | 1004.1 |
| 20260509112035 | 69 | 316 | 0.0 | 3.0 | 0.00 | 0.06 | 0.00 | 91 | 1004.0 |
| 20260509111540 | 69 | 317 | 1.0 | 3.0 | 0.00 | 0.06 | 0.00 | 91 | 1003.9 |
| 20260509111033 | 69 | 328 | 0.0 | 3.0 | 0.00 | 0.06 | 0.00 | 92 | 1004.0 |
| 20260509110533 | 69 | 305 | 0.0 | 5.0 | 0.00 | 0.06 | 0.00 | 92 | 1003.8 |
| 20260509110034 | 69 | 311 | 0.0 | 5.0 | 0.00 | 0.06 | 0.00 | 92 | 1003.9 |
| 20260509105531 | 69 | 242 | 0.0 | 4.0 | 0.00 | 0.06 | 0.00 | 92 | 1003.9 |
| 20260509105030 | 69 | 338 | 1.0 | 6.0 | 0.00 | 0.06 | 0.00 | 93 | 1003.9 |
| 20260509104540 | 68 | 338 | 2.0 | 6.0 | 0.00 | 0.06 | 0.00 | 93 | 1003.9 |
| 20260509104029 | 68 | 358 | 1.0 | 7.0 | 0.00 | 0.06 | 0.00 | 93 | 1003.9 |
| 20260509103529 | 68 | 310 | 4.0 | 7.0 | 0.00 | 0.06 | 0.00 | 93 | 1003.8 |
| 20260509103028 | 68 | 17 | 2.0 | 5.0 | 0.00 | 0.06 | 0.00 | 93 | 1003.5 |
| 20260509102532 | 68 | 243 | 0.0 | 4.0 | 0.00 | 0.06 | 0.00 | 93 | 1002.4 |
| 20260509102028 | 68 | 336 | 0.0 | 6.0 | 0.00 | 0.06 | 0.00 | 93 | 1002.3 |
| 20260509101536 | 68 | 270 | 2.0 | 8.0 | 0.00 | 0.06 | 0.00 | 93 | 1002.1 |
| 20260509101031 | 68 | 236 | 3.0 | 8.0 | 0.00 | 0.06 | 0.00 | 93 | 1001.9 |
| 20260509100531 | 68 | 237 | 2.0 | 8.0 | 0.00 | 0.06 | 0.00 | 93 | 1001.8 |
| 20260509100028 | 68 | 225 | 3.0 | 7.0 | 0.00 | 0.06 | 0.00 | 93 | 1001.7 |
| 20260509095528 | 68 | 233 | 3.0 | 9.0 | 0.00 | 0.06 | 0.00 | 93 | 1001.7 |
| 20260509095027 | 68 | 175 | 2.0 | 9.0 | 0.00 | 0.06 | 0.00 | 93 | 1001.6 |
| 20260509094535 | 68 | 210 | 3.0 | 10.0 | 0.00 | 0.06 | 0.00 | 93 | 1001.4 |
| 20260509094026 | 68 | 228 | 4.0 | 10.0 | 0.00 | 0.06 | 0.00 | 93 | 1001.5 |
| 20260509093526 | 68 | 240 | 3.0 | 10.0 | 0.00 | 0.06 | 0.00 | 93 | 1001.7 |
| 20260509093026 | 68 | 238 | 3.0 | 9.0 | 0.00 | 0.06 | 0.00 | 93 | 1001.8 |
| 20260509092525 | 68 | 226 | 3.0 | 9.0 | 0.00 | 0.06 | 0.00 | 93 | 1001.8 |
| 20260509092024 | 67 | 180 | 3.0 | 9.0 | 0.00 | 0.06 | 0.00 | 92 | 1001.6 |
| 20260509091536 | 67 | 215 | 3.0 | 8.0 | 0.00 | 0.06 | 0.00 | 92 | 1001.8 |